DW1850 Weather Reports


Display with metric or nautical units.
time (UTC)temp
F
wind
direction
speed
MPH
gust
MPH
rain 1hr
in
rain 24hr
in
rain mn
in
humidity
%
barometer
mb
20260831103000 78 177 1.0 9.0 0.00 0.00 0.00 89 1012.9
20260831095959 78 178 2.0 12.0 0.00 0.00 0.00 89 1012.8
20260831092958 78 178 4.0 12.0 0.00 0.00 0.00 88 1012.8
20260831085957 79 175 4.0 9.0 0.00 0.00 0.00 88 1012.7
20260831082957 79 169 1.0 10.0 0.00 0.00 0.00 86 1012.8
20260831072955 80 166 0.0 10.0 0.00 0.00 0.00 79 1012.8
20260831065954 81 166 4.0 12.0 0.00 0.00 0.00 77 1012.9
20260831062954 82 157 8.0 12.0 0.00 0.00 0.00 76 1013.0
20260831055953 83 154 2.0 8.0 0.00 0.00 0.00 74 1012.8
20260831052952 84 153 0.0 9.0 0.00 0.00 0.00 71 1012.6
20260831042950 86 158 1.0 15.0 0.00 0.00 0.00 66 1012.1
20260831032949 87 128 9.0 15.0 0.00 0.00 0.00 62 1011.8
20260831025948 88 137 10.0 16.0 0.00 0.00 0.00 60 1011.3
20260831022947 90 128 0.0 17.0 0.00 0.00 0.00 58 1011.0
20260831015946 91 110 0.0 0.0 0.00 0.00 0.00 49 1010.3
20260831005945 93 110 0.0 1.0 0.00 0.00 0.00 46 1009.7
20260831002944 95 111 0.0 8.0 0.00 0.00 0.00 44 1009.6
20260830222941 97 168 6.0 12.0 0.00 0.00 0.00 42 1010.0
20260830215940 97 148 0.0 12.0 0.00 0.00 0.00 43 1010.1
20260830212940 96 151 2.0 12.0 0.00 0.00 0.00 45 1010.4
20260830210009 96 136 0.0 16.0 0.00 0.00 0.00 45 1010.9
20260830203008 96 150 0.0 16.0 0.00 0.00 0.00 47 1011.2
20260830193007 94 129 2.0 13.0 0.00 0.00 0.00 50 1012.2
20260830190006 93 152 0.0 13.0 0.00 0.00 0.00 52 1012.7
20260830183005 92 152 0.0 14.0 0.00 0.00 0.00 54 1013.1
20260830180005 92 129 10.0 14.0 0.00 0.00 0.00 57 1013.6
20260830173003 90 143 0.0 8.0 0.00 0.00 0.00 62 1014.2
20260830170003 89 170 0.0 8.0 0.00 0.00 0.00 62 1014.7
20260830153001 84 189 1.0 7.0 0.00 0.00 0.00 75 1014.4
20260830150000 82 192 3.0 10.0 0.00 0.00 0.00 80 1014.3
20260830142959 80 186 2.0 9.0 0.00 0.00 0.00 83 1014.3
20260830132957 77 176 0.0 2.0 0.00 0.00 0.00 90 1014.0
20260830125957 76 176 0.0 5.0 0.00 0.00 0.00 91 1013.8
20260830115955 75 176 0.0 5.0 0.00 0.00 0.00 89 1013.2
20260830112954 76 176 0.0 2.0 0.00 0.00 0.00 88 1013.3
20260830105953 76 176 0.0 5.0 0.00 0.00 0.00 87 1013.1